Location: Luz Observatory
(34.5000°N, 117.2833°W)
Time: 20:57:28
(UTC-07:00)

Cosmos 1484 Rocket - Visible Passes

Search period start: 17 October 2017 00:00
Search period end: 27 October 2017 00:00
Orbit: 506 x 563 km, 97.3° (Epoch: 17 October)

Date Brightness Start Highest point End Pass type
(mag) Time Alt. Az. Time Alt. Az. Time Alt. Az.
17 Oct 6.0 06:16:39 10° NE 06:19:26 19° E 06:22:14 10° SE visible
18 Oct 6.3 06:08:07 10° ENE 06:10:22 15° E 06:12:36 10° SE visible
19 Oct 6.6 05:59:58 10° ENE 06:01:17 11° E 06:02:36 10° ESE visible
21 Oct 6.3 19:30:01 10° WSW 19:31:32 12° W 19:33:02 10° WNW visible
22 Oct 6.0 19:20:07 10° SW 19:22:26 16° W 19:24:45 10° NW visible
23 Oct 5.6 19:10:32 10° SW 19:13:21 20° W 19:16:11 10° NW visible
24 Oct 5.1 19:01:07 10° SSW 19:04:17 27° W 19:07:28 10° NW visible
25 Oct 4.5 18:51:48 10° SSW 18:55:13 35° W 18:58:39 10° NNW visible
26 Oct 5.2 06:29:16 10° NE 06:32:42 30° E 06:36:10 10° SSE visible
26 Oct 3.9 18:42:35 10° S 18:46:10 47° W 18:49:46 10° NNW visible
